{"data":{"norad_id":48575,"intl_designator":"2021-041Y","name":"STARLINK-2227","alt_names":[],"object_type":"PAYLOAD","status":"ACTIVE","operator":null,"country":"US","launch_date":"2021-05-15","launch_site_code":"AFETR","launch_vehicle":null,"mission":null,"orbit_class":"UNKNOWN","rcs_meters":null,"size_class":null,"mass_kg":null,"dimensions":null,"purposes":["comms"],"wikipedia_slug":null,"has_3d_model":false,"image_url":null,"decayed_at":null,"tle_current":{"epoch":"2026-05-25T02:44:21.618240Z","epoch_age_seconds":61142,"freshness":"FRESH","line1":"1 48575U 21041Y   26145.11413910  .00001044  00000+0  45405-4 0  9995","line2":"2 48575  53.1593  92.7669 0001916  79.5677 280.5541 15.31702512277530","mean_motion":15.31702512,"eccentricity":0.0001916,"inclination_deg":53.1593,"raan_deg":92.7669,"arg_perigee_deg":79.5677,"mean_anomaly_deg":280.5541,"bstar":4.5405e-5,"rev_number":27753,"period_min":94.013033778977,"perigee_km":469.42026369704,"apogee_km":472.04475049215,"semimajor_km":6848.8695070946,"source":"CELESTRAK","updated_at":"2026-05-25T13:38:16.728315Z"}}}